User: anonymous   Login
Location: Jabiru
(12.6667°S, 132.8333°E)
Time: 05:13:12
(UTC+09:30)
Language:

KKS-1 - Orbit

View from above orbital plane
View from above orbital plane
View from above satellite
View from above satellite

Ground track
Ground track

The orbit data is extracted from the following two-line orbital elements,

1 33499U 09002H   19292.15103166  .00000051  00000-0  15522-4 0  9990
2 33499  98.3405 134.7203 0009259 169.1776 190.9633 14.75470213577285
Epoch (UTC): 19 October 2019 03:37:29
Eccentricity: 0.0009259
inclination: 98.3405°
perigee height: 637 km
apogee height: 650 km
right ascension of ascending node: 134.7203°
argument of perigee: 169.1776°
revolutions per day: 14.75470213
mean anomaly at epoch: 190.9633°
orbit number at epoch: 57728

The dashed part of the orbit path shows where the satellite is in the earth's shadow,  

DLR